Location: Newark
(45.5000°N, 11.4167°E)
Time: 15:53:42
(UTC+00:00)

A-11 Canister half - Pass Details

Date: 24 August 2019
Orbit: 1514 x 1686 km, 47.2° (Epoch: 15 September)

Event Time Altitude Azimuth Distance (km) Brightness Sun altitude
Rises 21:25:57 0° 288° (WNW) 4,762 12.3 -28.3°
Reaches altitude 10° 21:28:59 10° 287° (WNW) 3,799 11.6 -28.5°
Maximum altitude 21:38:41 79° 204° (SSW) 1,663 8.9 -29.4°
Enters shadow 21:41:26 54° 131° (SE) 1,939 9.1 -29.6°
Drops below altitude 10° 21:48:43 10° 120° (ESE) 3,919 - -30.2°
Sets 21:51:54 0° 119° (ESE) 4,918 - -30.4°
